User: anonymous   Login
Location: Unspecified
(0.0000°N, 0.0000°E)
Time: 07:51:10
(UTC+00:00)
Language:

OBJECT H - Orbit

View from above orbital plane
View from above orbital plane
View from above satellite
View from above satellite

Ground track
Ground track

The orbit data is extracted from the following two-line orbital elements,

1 43669U 18083H   20223.88517120 +.00000621 +00000-0 +34464-4 0  9993
2 43669 097.4747 247.8332 0011453 156.5911 203.5847 15.17361713098785
Epoch (UTC): 10 August 2020 21:14:38
Eccentricity: 0.0011453
inclination: 97.4747°
perigee height: 506 km
apogee height: 522 km
right ascension of ascending node: 247.8332°
argument of perigee: 156.5911°
revolutions per day: 15.17361713
mean anomaly at epoch: 203.5847°
orbit number at epoch: 9878

The dashed part of the orbit path shows where the satellite is in the earth's shadow,  

DLR